EFW5QL EGKK-LGIR

Flight info

Callsign EFW5QL
Flight time N/A
Altitude 35000
Route MIMFO1M MIMFO Y312 DVR UL9 KONAN DCT KOK DCT SISGA DCT KOMOB DCT EDISA DCT KUNOD DCT GEDSO DCT VEKEN DCT MSR DCT PINDO DCT PIKOS UL607 GIVIS T514 XAVIS XAVIS1A
Aircraft A321/M-SDE3FGIJ1KRWXY/SB1

Departure

Time 2026-04-18 08:17
Airport London Gatwick Airport (EGKK)

Arrival

Time N/A
Airport Heraklion International Nikos Kazantzakis Airport (LGIR)
Time Latitude Longitude Altitude Speed Heading
2026-04-18 07:34 51.15404 -0.16413 198 ft 0 kts 76°
2026-04-18 08:07 51.15401 -0.16434 198 ft 2 kts 78°
2026-04-18 08:07 51.15400 -0.16449 198 ft 2 kts 98°
2026-04-18 08:07 51.15404 -0.16472 199 ft 2 kts 117°
2026-04-18 08:07 51.15413 -0.16492 199 ft 2 kts 138°
2026-04-18 08:08 51.15425 -0.16505 199 ft 2 kts 159°
2026-04-18 08:08 51.15433 -0.16508 199 ft 1 kts 171°
2026-04-18 08:08 51.15437 -0.16509 199 ft 0 kts 167°
2026-04-18 08:11 51.15430 -0.16509 199 ft 2 kts 188°
2026-04-18 08:11 51.15418 -0.16544 199 ft 4 kts 245°
2026-04-18 08:11 51.15408 -0.16589 199 ft 4 kts 259°
2026-04-18 08:12 51.15400 -0.16648 199 ft 6 kts 257°
2026-04-18 08:12 51.15384 -0.16697 199 ft 5 kts 208°
2026-04-18 08:12 51.15342 -0.16688 199 ft 7 kts 158°
2026-04-18 08:12 51.15289 -0.16665 199 ft 8 kts 167°
2026-04-18 08:13 51.15264 -0.16656 199 ft 0 kts 168°
2026-04-18 08:15 51.15236 -0.16647 199 ft 6 kts 168°
2026-04-18 08:15 51.15189 -0.16630 199 ft 7 kts 168°
2026-04-18 08:15 51.15149 -0.16629 199 ft 5 kts 225°
2026-04-18 08:15 51.15140 -0.16660 199 ft 0 kts 259°
2026-04-18 08:16 51.15131 -0.16738 199 ft 29 kts 258°
2026-04-18 08:17 51.15029 -0.17473 199 ft 103 kts 257°
2026-04-18 08:17 51.14829 -0.18915 200 ft 163 kts 259°
2026-04-18 08:17 51.14582 -0.20749 746 ft 171 kts 258°
2026-04-18 08:17 51.14334 -0.22633 1453 ft 177 kts 259°
2026-04-18 08:18 51.14087 -0.24512 2128 ft 174 kts 260°
2026-04-18 08:18 51.13823 -0.26431 2437 ft 184 kts 260°
2026-04-18 08:18 51.13652 -0.28506 2655 ft 197 kts 275°
2026-04-18 08:18 51.14184 -0.30543 2839 ft 213 kts 312°
2026-04-18 08:19 51.15427 -0.31839 3341 ft 220 kts 339°
2026-04-18 08:19 51.16948 -0.32128 3919 ft 227 kts
2026-04-18 08:19 51.18464 -0.31273 4439 ft 238 kts 33°
2026-04-18 08:19 51.19526 -0.29265 4913 ft 250 kts 64°
2026-04-18 08:20 51.19869 -0.26466 5212 ft 267 kts 92°
2026-04-18 08:20 51.19758 -0.23447 5522 ft 282 kts 95°
2026-04-18 08:20 51.19592 -0.20332 6149 ft 286 kts 96°
2026-04-18 08:20 51.19448 -0.17156 6767 ft 291 kts 95°
2026-04-18 08:21 51.19339 -0.13911 7430 ft 294 kts 94°
2026-04-18 08:21 51.19258 -0.10675 8100 ft 297 kts 94°
2026-04-18 08:21 51.19193 -0.07392 8741 ft 300 kts 94°
2026-04-18 08:21 51.19135 -0.04036 9370 ft 304 kts 94°
2026-04-18 08:22 51.19079 -0.00689 9979 ft 307 kts 94°
2026-04-18 08:22 51.19025 0.02742 10552 ft 311 kts 94°
2026-04-18 08:22 51.18967 0.06230 10853 ft 325 kts 94°
2026-04-18 08:22 51.18906 0.09926 11130 ft 340 kts 94°
2026-04-18 08:23 51.18845 0.13780 11396 ft 355 kts 94°
2026-04-18 08:23 51.18778 0.17753 11670 ft 368 kts 94°
2026-04-18 08:23 51.18710 0.21854 12144 ft 374 kts 93°
2026-04-18 08:23 51.18642 0.25986 12744 ft 376 kts 94°
2026-04-18 08:24 51.18573 0.30152 13272 ft 380 kts 94°
2026-04-18 08:24 51.18499 0.34400 13799 ft 384 kts 94°
2026-04-18 08:24 51.18423 0.38657 14303 ft 388 kts 94°
2026-04-18 08:24 51.18344 0.42976 14851 ft 390 kts 94°
2026-04-18 08:25 51.18263 0.47298 15355 ft 394 kts 94°
2026-04-18 08:25 51.18180 0.51660 15871 ft 397 kts 94°
2026-04-18 08:25 51.18096 0.56043 16348 ft 400 kts 94°
2026-04-18 08:25 51.18008 0.60489 16846 ft 403 kts 94°
2026-04-18 08:26 51.17918 0.64921 17315 ft 407 kts 94°
2026-04-18 08:26 51.17827 0.69439 17770 ft 410 kts 95°
2026-04-18 08:26 51.17730 0.73979 18226 ft 412 kts 94°
2026-04-18 08:26 51.17633 0.78537 18684 ft 415 kts 94°
2026-04-18 08:27 51.17534 0.83163 19112 ft 419 kts 95°
2026-04-18 08:27 51.17433 0.87760 19538 ft 421 kts 95°
2026-04-18 08:27 51.17329 0.92435 19967 ft 424 kts 95°
2026-04-18 08:27 51.17221 0.97126 20351 ft 427 kts 95°
2026-04-18 08:28 51.17110 1.01893 20755 ft 430 kts 95°
2026-04-18 08:28 51.16998 1.06638 21126 ft 433 kts 95°
2026-04-18 08:28 51.16882 1.11434 21509 ft 436 kts 95°
2026-04-18 08:28 51.16765 1.16243 21888 ft 439 kts 95°
2026-04-18 08:29 51.16645 1.21104 22269 ft 442 kts 95°
2026-04-18 08:29 51.16520 1.26006 22636 ft 444 kts 95°
2026-04-18 08:29 51.16393 1.30904 22966 ft 447 kts 95°
2026-04-18 08:29 51.16263 1.35867 23297 ft 450 kts 95°
2026-04-18 08:30 51.16073 1.40810 23667 ft 451 kts 97°
2026-04-18 08:30 51.15829 1.45824 23953 ft 454 kts 97°
2026-04-18 08:30 51.15574 1.50794 24250 ft 457 kts 98°
2026-04-18 08:30 51.15317 1.55867 24572 ft 459 kts 97°
2026-04-18 08:31 51.15065 1.60902 24871 ft 461 kts 98°
2026-04-18 08:31 51.14811 1.65999 25218 ft 463 kts 98°
2026-04-18 08:31 51.14558 1.71083 25481 ft 466 kts 99°
2026-04-18 08:31 51.14299 1.76229 25749 ft 469 kts 98°
2026-04-18 08:32 51.14037 1.81394 25995 ft 471 kts 98°
2026-04-18 08:32 51.13773 1.86563 26260 ft 474 kts 99°
2026-04-18 08:32 51.13503 1.91778 26480 ft 476 kts 99°
2026-04-18 08:32 51.13226 1.97087 26760 ft 478 kts 99°
2026-04-18 08:33 51.12947 2.02433 27032 ft 480 kts 99°
2026-04-18 08:33 51.12669 2.07679 27281 ft 483 kts 99°
2026-04-18 08:33 51.12384 2.13022 27542 ft 484 kts 99°
2026-04-18 08:33 51.12096 2.18364 27829 ft 486 kts 99°
2026-04-18 08:34 51.11807 2.23687 28071 ft 488 kts 99°
2026-04-18 08:34 51.11514 2.29036 28307 ft 489 kts 99°
2026-04-18 08:34 51.11217 2.34412 28503 ft 491 kts 99°
2026-04-18 08:34 51.10913 2.39882 28753 ft 493 kts 99°
2026-04-18 08:35 51.10612 2.45255 28971 ft 495 kts 99°
2026-04-18 08:35 51.10269 2.50705 29170 ft 493 kts 103°
2026-04-18 08:35 51.09312 2.55807 29366 ft 481 kts 120°
2026-04-18 08:35 51.07793 2.60508 29774 ft 473 kts 126°
2026-04-18 08:36 51.06184 2.65006 30103 ft 471 kts 127°
2026-04-18 08:36 51.04574 2.69499 30342 ft 472 kts 127°
2026-04-18 08:36 51.02983 2.74047 30565 ft 473 kts 126°
2026-04-18 08:36 51.01397 2.78680 30762 ft 474 kts 125°
2026-04-18 08:37 50.99856 2.83250 30971 ft 475 kts 125°
2026-04-18 08:37 50.98304 2.87906 31228 ft 475 kts 125°
2026-04-18 08:37 50.96769 2.92535 31519 ft 474 kts 125°
2026-04-18 08:37 50.95246 2.97129 31788 ft 473 kts 124°
2026-04-18 08:38 50.93731 3.01695 32109 ft 471 kts 124°
2026-04-18 08:38 50.92211 3.06292 32370 ft 470 kts 124°
2026-04-18 08:38 50.90692 3.10866 32598 ft 470 kts 124°
2026-04-18 08:38 50.89174 3.15422 32856 ft 469 kts 124°
2026-04-18 08:39 50.87649 3.19988 33106 ft 468 kts 124°
2026-04-18 08:39 50.86151 3.24479 33351 ft 468 kts 124°
2026-04-18 08:39 50.84620 3.29059 33570 ft 468 kts 124°
2026-04-18 08:39 50.83093 3.33605 33719 ft 469 kts 124°
2026-04-18 08:40 50.81562 3.38151 33834 ft 471 kts 123°
2026-04-18 08:40 50.80028 3.42716 34017 ft 472 kts 124°
2026-04-18 08:40 50.78490 3.47285 34205 ft 472 kts 124°
2026-04-18 08:40 50.76957 3.51820 34377 ft 473 kts 123°
2026-04-18 08:41 50.75403 3.56413 34512 ft 474 kts 123°
2026-04-18 08:41 50.73851 3.60987 34645 ft 475 kts 123°
2026-04-18 08:41 50.72292 3.65582 34814 ft 476 kts 124°
2026-04-18 08:41 50.70742 3.70144 34958 ft 476 kts 124°
2026-04-18 08:42 50.69184 3.74719 35071 ft 476 kts 124°
2026-04-18 08:42 50.67603 3.79351 35175 ft 476 kts 124°
2026-04-18 08:42 50.66044 3.83904 35164 ft 477 kts 124°
2026-04-18 08:43 50.62901 3.93072 35176 ft 477 kts 124°
2026-04-18 08:43 50.59747 4.02231 35181 ft 477 kts 124°
2026-04-18 08:44 50.56594 4.11361 35196 ft 477 kts 124°
2026-04-18 08:44 50.53452 4.20421 35184 ft 475 kts 123°
2026-04-18 08:45 50.50289 4.29521 35192 ft 475 kts 123°
2026-04-18 08:45 50.47118 4.38609 35213 ft 474 kts 123°
2026-04-18 08:46 50.43957 4.47626 35211 ft 475 kts 123°
2026-04-18 08:46 50.40786 4.56646 35209 ft 474 kts 123°
2026-04-18 08:47 50.37608 4.65649 35182 ft 473 kts 124°
2026-04-18 08:47 50.34428 4.74625 35215 ft 473 kts 124°
2026-04-18 08:48 50.31251 4.83571 35188 ft 472 kts 124°
2026-04-18 08:48 50.28042 4.92566 35191 ft 472 kts 123°
2026-04-18 08:49 50.24859 5.01464 35174 ft 471 kts 123°
2026-04-18 08:49 50.21679 5.10323 35166 ft 471 kts 124°
2026-04-18 08:50 50.18475 5.19210 35187 ft 470 kts 124°
2026-04-18 08:50 50.15277 5.28050 35176 ft 471 kts 123°
2026-04-18 08:51 50.12072 5.36887 35174 ft 471 kts 123°
2026-04-18 08:51 50.08840 5.45763 35164 ft 470 kts 123°
2026-04-18 08:52 50.05632 5.54545 35184 ft 470 kts 123°
2026-04-18 08:52 50.02405 5.63352 35169 ft 469 kts 123°
2026-04-18 08:53 49.99162 5.72164 35166 ft 469 kts 124°
2026-04-18 08:53 49.95939 5.80903 35158 ft 467 kts 124°
2026-04-18 08:54 49.92714 5.89605 35161 ft 468 kts 124°
2026-04-18 08:54 49.89467 5.98348 35171 ft 467 kts 124°
2026-04-18 08:55 49.86234 6.07018 35183 ft 467 kts 124°
2026-04-18 08:55 49.82981 6.15706 35193 ft 469 kts 123°
2026-04-18 08:56 49.79710 6.24431 35196 ft 468 kts 124°
2026-04-18 08:56 49.76436 6.33119 35191 ft 470 kts 123°
2026-04-18 08:57 49.71497 6.46180 35207 ft 470 kts 123°
2026-04-18 08:57 49.68196 6.54869 35188 ft 471 kts 123°
2026-04-18 08:58 49.64885 6.63558 35198 ft 471 kts 123°
2026-04-18 08:58 49.61577 6.72222 35181 ft 470 kts 124°
2026-04-18 08:59 49.58276 6.80825 35174 ft 470 kts 123°
2026-04-18 08:59 49.54937 6.89500 35173 ft 470 kts 123°
2026-04-18 09:00 49.51627 6.98079 35169 ft 470 kts 123°
2026-04-18 09:00 49.48275 7.06730 35167 ft 470 kts 123°
2026-04-18 09:01 49.44929 7.15334 35172 ft 471 kts 123°
2026-04-18 09:01 49.41574 7.23945 35174 ft 471 kts 123°
2026-04-18 09:02 49.38199 7.32576 35177 ft 472 kts 123°
2026-04-18 09:02 49.34839 7.41143 35176 ft 472 kts 123°
2026-04-18 09:03 49.31460 7.49721 35173 ft 472 kts 123°
2026-04-18 09:03 49.28066 7.58313 35172 ft 471 kts 123°
2026-04-18 09:04 49.24684 7.66849 35171 ft 471 kts 123°
2026-04-18 09:04 49.21292 7.75383 35171 ft 471 kts 123°
2026-04-18 09:05 49.17878 7.83948 35170 ft 471 kts 123°
2026-04-18 09:05 49.14468 7.92470 35170 ft 471 kts 123°
2026-04-18 09:06 49.11053 8.00981 35170 ft 471 kts 123°
2026-04-18 09:06 49.07645 8.09443 35161 ft 471 kts 123°
2026-04-18 09:07 49.04213 8.17944 35168 ft 471 kts 123°
2026-04-18 09:07 49.00791 8.26383 35165 ft 470 kts 123°
2026-04-18 09:08 48.97165 8.34632 35158 ft 469 kts 128°
2026-04-18 09:08 48.93296 8.42571 35161 ft 469 kts 128°
2026-04-18 09:09 48.89415 8.50507 35163 ft 470 kts 128°
2026-04-18 09:09 48.85514 8.58461 35143 ft 470 kts 128°
2026-04-18 09:10 48.81614 8.66409 35161 ft 470 kts 128°
2026-04-18 09:10 48.77742 8.74278 35163 ft 468 kts 128°
2026-04-18 09:11 48.73836 8.82193 35172 ft 468 kts 128°
2026-04-18 09:11 48.69965 8.90010 35172 ft 468 kts 128°
2026-04-18 09:12 48.66075 8.97845 35167 ft 468 kts 128°
2026-04-18 09:12 48.62164 9.05697 35172 ft 468 kts 128°
2026-04-18 09:13 48.58244 9.13547 35170 ft 468 kts 128°
2026-04-18 09:13 48.54348 9.21326 35172 ft 467 kts 128°
2026-04-18 09:14 48.50421 9.29144 35180 ft 467 kts 128°
2026-04-18 09:14 48.46512 9.36904 35186 ft 467 kts 128°
2026-04-18 09:15 48.42587 9.44674 35181 ft 467 kts 128°
2026-04-18 09:15 48.38658 9.52433 35176 ft 467 kts 128°
2026-04-18 09:16 48.34740 9.60143 35193 ft 467 kts 128°
2026-04-18 09:16 48.30714 9.67812 35193 ft 467 kts 131°
2026-04-18 09:17 48.26643 9.75333 35204 ft 467 kts 131°
2026-04-18 09:17 48.22559 9.82874 35201 ft 467 kts 130°
2026-04-18 09:18 48.18485 9.90402 35201 ft 467 kts 130°
2026-04-18 09:18 48.14389 9.97950 35203 ft 468 kts 130°
2026-04-18 09:19 48.10292 10.05481 35202 ft 468 kts 130°
2026-04-18 09:19 48.06189 10.13002 35201 ft 467 kts 130°
2026-04-18 09:20 48.02088 10.20502 35203 ft 467 kts 130°
2026-04-18 09:20 47.98000 10.27956 35203 ft 467 kts 130°
2026-04-18 09:21 47.93903 10.35407 35202 ft 467 kts 130°
2026-04-18 09:21 47.89795 10.42859 35202 ft 467 kts 130°
2026-04-18 09:22 47.85681 10.50297 35205 ft 467 kts 130°
2026-04-18 09:22 47.81538 10.57771 35203 ft 468 kts 130°
2026-04-18 09:23 47.77403 10.65208 35202 ft 468 kts 131°
2026-04-18 09:23 47.73271 10.72620 35205 ft 467 kts 131°
2026-04-18 09:24 47.69125 10.80036 35204 ft 467 kts 131°
2026-04-18 09:24 47.64998 10.87402 35201 ft 467 kts 131°
2026-04-18 09:25 47.60831 10.94814 35204 ft 467 kts 131°
2026-04-18 09:25 47.56667 11.02199 35210 ft 467 kts 130°
2026-04-18 09:26 47.52530 11.09518 35217 ft 468 kts 130°
2026-04-18 09:26 47.48353 11.16887 35233 ft 467 kts 130°
2026-04-18 09:27 47.44194 11.24210 35215 ft 468 kts 130°
2026-04-18 09:27 47.40006 11.31557 35214 ft 468 kts 130°
2026-04-18 09:28 47.35838 11.38854 35212 ft 468 kts 130°
2026-04-18 09:28 47.31637 11.46186 35204 ft 468 kts 130°
2026-04-18 09:29 47.27470 11.53442 35206 ft 468 kts 130°
2026-04-18 09:29 47.23249 11.60775 35233 ft 468 kts 130°
2026-04-18 09:30 47.19032 11.68077 35243 ft 469 kts 130°
2026-04-18 09:30 47.14827 11.75346 35234 ft 468 kts 130°
2026-04-18 09:31 47.10668 11.82672 35228 ft 469 kts 127°
2026-04-18 09:31 47.07002 11.90585 35217 ft 469 kts 120°
2026-04-18 09:32 47.03983 11.99014 35226 ft 468 kts 115°
2026-04-18 09:32 47.01147 12.07548 35240 ft 467 kts 115°
2026-04-18 09:33 46.98307 12.16040 35226 ft 467 kts 115°
2026-04-18 09:33 46.95434 12.24582 35215 ft 467 kts 114°
2026-04-18 09:34 46.92578 12.33039 35214 ft 468 kts 115°
2026-04-18 09:34 46.89679 12.41588 35219 ft 467 kts 114°
2026-04-18 09:35 46.86815 12.50008 35236 ft 468 kts 114°
2026-04-18 09:35 46.83919 12.58496 35226 ft 467 kts 114°
2026-04-18 09:36 46.81012 12.66983 35210 ft 467 kts 115°